Weather History for KAND - September, 2013

Change the Weather History Date:

Wednesday, September 18, 2013

  Actual Average Record
Temperature  
Mean Temperature 69 °F -  
Max Temperature 78 °F 81 °F 96 °F (1954)
Min Temperature 63 °F 63 °F 50 °F (1996)
Cooling Degree Days 4    
Growing Degree Days 19 (Base 50)    
Moisture  
Dew Point 57 °F    
Average Humidity 68    
Maximum Humidity 90    
Minimum Humidity 51    
Precipitation  
Precipitation 0.00 in - - ()
Sea Level Pressure  
Sea Level Pressure 30.21 in    
Wind  
Wind Speed 7 mph (ENE)    
Max Wind Speed 10 mph    
Max Gust Speed -    
Visibility 10 miles    
Events      
Averages and records for this station are not official NWS values.
T = Trace of Precipitation, MM = Missing Value Source: NWS Daily Summary

Daily Weather History Graph

Daily Weather History Graph

Search for Another Location

Airport or City:

Trip Planner

Search our weather history database for the weather conditions in past years. The results will help you decide how hot, cold, wet, or windy it might be!

Date:

Astronomy

Sep. 18, 2013 Rise Set
Actual Time 7:16 AM EDT 7:32 PM EDT
Civil Twilight 6:51 AM EDT 7:58 PM EDT
Nautical Twilight 6:21 AM EDT 8:27 PM EDT
Astronomical Twilight 5:51 AM EDT 8:57 PM EDT
Moon 6:56 PM EDT (9/18) 6:18 AM EDT (9/18)
Length of Visible Light 13h 07m
Length of Day
12h 16m
Waxing Gibbous, 99% of the Moon is Illuminated
Sep 18
Waxing Gibbous
Sep 19
Full
Sep 26
Last Quarter
Oct 4
New
Oct 11
First Quarter

Hourly Weather History & Observations

Time (EDT) Temp. Dew Point Humidity Pressure Visibility Wind Dir Wind Speed Gust Speed Precip Events Conditions
12:56 AM 66.9 °F 57.0 °F 70% 30.23 in 10.0 mi NE 8.1 mph - N/A   Overcast
1:56 AM 66.0 °F 57.0 °F 73% 30.22 in 10.0 mi ENE 10.4 mph - N/A   Overcast
2:56 AM 66.0 °F 57.0 °F 73% 30.23 in 10.0 mi NE 9.2 mph - N/A   Overcast
3:56 AM 66.0 °F 55.9 °F 70% 30.22 in 10.0 mi NE 9.2 mph - N/A   Overcast
4:56 AM 66.0 °F 55.9 °F 70% 30.22 in 10.0 mi ENE 10.4 mph - N/A   Overcast
5:56 AM 64.9 °F 55.0 °F 70% 30.22 in 10.0 mi ENE 9.2 mph - N/A   Overcast
6:56 AM 64.0 °F 55.0 °F 73% 30.25 in 10.0 mi ENE 10.4 mph - N/A   Overcast
7:56 AM 63.0 °F 55.0 °F 75% 30.26 in 10.0 mi ENE 8.1 mph - N/A   Mostly Cloudy
8:56 AM 64.9 °F 55.9 °F 73% 30.27 in 10.0 mi NE 10.4 mph - N/A   Mostly Cloudy
9:56 AM 66.0 °F 55.0 °F 68% 30.28 in 10.0 mi East 9.2 mph - N/A   Scattered Clouds
10:56 AM 68.0 °F 54.0 °F 61% 30.27 in 10.0 mi ENE 8.1 mph - N/A   Clear
11:56 AM 70.0 °F 55.9 °F 61% 30.26 in 10.0 mi East 4.6 mph - N/A   Clear
12:56 PM 73.0 °F 55.9 °F 55% 30.25 in 10.0 mi Variable 6.9 mph - N/A   Clear
1:56 PM 73.9 °F 55.9 °F 53% 30.22 in 10.0 mi SSE 4.6 mph - N/A   Partly Cloudy
2:56 PM 73.9 °F 55.0 °F 52% 30.20 in 10.0 mi Calm Calm - N/A   Mostly Cloudy
3:56 PM 75.0 °F 55.9 °F 51% 30.18 in 10.0 mi Calm Calm - N/A   Overcast
4:56 PM 75.9 °F 57.0 °F 52% 30.17 in 10.0 mi Calm Calm - N/A   Overcast
5:56 PM 73.9 °F 57.9 °F 57% 30.16 in 10.0 mi Variable 3.5 mph - N/A   Clear
6:56 PM 73.0 °F 57.9 °F 59% 30.16 in 10.0 mi ENE 5.8 mph - N/A   Mostly Cloudy
7:56 PM 69.1 °F 59.0 °F 70% 30.15 in 10.0 mi Calm Calm - N/A   Clear
8:56 PM 66.9 °F 60.1 °F 79% 30.17 in 10.0 mi Calm Calm - N/A   Clear
9:56 PM 64.0 °F 61.0 °F 90% 30.19 in 10.0 mi Calm Calm - N/A   Clear
10:56 PM 64.0 °F 61.0 °F 90% 30.19 in 10.0 mi Calm Calm - N/A   Partly Cloudy
11:56 PM 64.9 °F 61.0 °F 87% 30.18 in 10.0 mi NE 3.5 mph - N/A   Clear